SCP
0 0 0 0 0 0 0 0 0 0 0 0 0 0 0 0 0 0 0 0 1 1 0 0 0 0 0 0 0 0 0 0 0 0 0 0 0 0 0 0 0 0 0
0 0 0 0 0 0 0 0 0 0 0 0 0 0 0 0 0 0 0 0 0 0 1 1 0 1 0 0 0 0 0 0 0 0 0 0 0 0 0 0 0 0 0
0 0 0 0 0 0 0 0 0 0 0 0 0 0 0 0 0 0 0 0 0 0 0 0 0 0 0 0 0 0 0 0 0 0 0 0 0 0 0 0 0 0 0
0 0 0 0 0 0 0 0 0 0 0 0 0 0 0 0 0 0 0 0 0 0 0 0 0 0 0 0 0 0 0 0 0 0 0 0 0 0 0 0 0 0 0
0 0 0 0 0 0 0 0 0 0 0 0 0 0 0 0 0 0 0 0 0 0 0 0 0 0 0 0 0 0 0 0 0 0 0 0 0 0 0 0 0 0 0
0 0 0 0 0 0 0 0 0 0 0 0 0 0 0 0 0 0 0 0 0 0 0 0 0 0 0 0 0 0 0 0 0 0 0 0 0 0 0 0 0 0 0
0 0 0 0 0 0 0 0 0 0 0 0 0 0 0 0 0 0 0 0 0 0 0 0 0 0 0 0 0 0 0 0 0 0 0 0 0 0 0 0 0 0 0
0 0 0 0 0 0 0 0 0 0 0 -0 0 0 0 0 0 0 0 0 0 0 0 0 0 0 0 0 0 0 0 0 0 0 0 0 0 0 0 0 0 0 0
0 0 0 0 0 0 0 0 0 -0 0 0 0 0 0 0 0 0 0 0 0 0 0 0 0 0 0 0 0 0 0 0 0 0 0 0 0 0 0 0 0 0 0
0 0 0 0 0 0 0 0 0 0 0 0 0 0 0 0 0 0 0 0 0 0 0 0 0 0 0 0 0 0 0 0 0 0 0 0 0 0 0 0 0 0 0
0 0 0 0 0 0 0 0 0 0 0 0 0 0 0 0 0 0 0 0 0 0 0 0 0 0 0 0 0 0 0 0 0 0 0 0 0 0 0 0 0 0 0
0 0 0 0 0 0 0 0 0 0 0 0 0 0 0 0 0 0 0 0 0 0 0 0 0 0 0 0 0 0 0 0 0 0 0 0 0 0 0 0 0 0 0
-0 -0 -0 0 0 0 0 0 0 0 0 0 0 0 0 0 0 0 0 0 0 0 0 0 0 0 0 0 0 0 0 0 0 0 0 0 0 0 0 0 0 0 0
-0 0 0 0 0 0 0 0 0 0 0 0 0 0 0 0 0 0 0 0 0 0 0 0 0 0 0 0 0 0 0 0 0 0 0 0 0 0 0 0 0 0 0
-0 0 0 0 0 0 0 0 0 0 0 0 0 0 0 0 0 0 0 0 0 0 0 0 0 0 0 0 0 0 0 0 0 0 0 0 0 0 0 0 0 0 0
0 0 0 0 0 0 0 0 0 0 0 0 0 0 0 0 0 0 0 0 0 0 0 0 0 0 0 0 0 0 0 -0 0 0 0 0 0 0 0 0 0 0 0
0 0 0 0 0 0 0 0 0 0 0 0 0 0 0 0 0 0 0 0 0 0 0 0 0 0 0 -0 -0 0 0 0 0 0 0 0 0 0 0 0 0 0 0
0 0 0 0 0 0 0 0 0 0 0 0 0 0 0 0 0 0 0 0 0 0 0 -0 -0 -0 -0 -0 0 0 0 0 0 0 0 0 0 0 0 0 0 0 0
0 0 0 0 0 0 0 0 0 0 0 0 0 0 0 0 0 0 0 0 0 0 0 -0 -0 -0 0 0 0 0 0 0 0 0 0 0 0 0 0 0 0 0 0
0 0 0 0 0 0 0 0 0 0 0 0 0 0 0 0 0 0 0 0 0 0 0 0 0 0 -0 -0 -0 0 0 0 0 0 0 0 0 0 0 0 0 0 0
0 0 0 0 0 0 0 0 0 0 0 0 0 0 0 0 0 0 0 0 0 0 0 0 0 0 0 0 0 0 0 0 0 0 0 0 0 0 0 0 0 0 0
0 0 0 0 0 0 0 0 0 0 0 0 0 0 0 0 0 0 0 0 0 0 0 0 0 0 0 0 0 0 0 0 0 0 0 -0 -0 0 0 0 0 0 -0
0 0 0 0 0 0 0 0 0 0 0 0 0 0 0 0 0 0 0 0 0 0 0 0 0 0 -0 -0 0 0 0 0 0 -0 -0 0 0 0 0 0 0 0 0
0 0 0 0 0 0 0 0 0 0 0 0 0 0 0 0 0 -0 -0 -0 0 0 0 0 0 -0 0 0 0 0 0 0 0 0 0 0 0 0 -0 -0 0 0 0
0 0 0 0 0 0 0 0 0 0 0 0 0 0 0 0 0 -0 -0 -0 -0 -0 0 0 -0 0 0 0 0 0 0 0 0 0 0 0 0 0 0 -0 -0 -0 0
0 0 0 0 0 0 0 0 0 0 0 0 0 0 0 0 0 -0 -0 -0 -0 -0 -0 -0 -0 -0 0 0 0 0 0 0 0 0 0 0 0 0 0 0 -0 0 0
Wind_Speed_500mb
21 20 24 33 38 41 40 40 40 42 45 48 50 51 50 47 44 48 53 60 66 70 70 72 75 73 71 71 70 70 72 72 82 80 73 64 58 51 60 65 47 43 48
13 18 23 30 38 42 46 52 54 55 56 57 57 60 63 63 63 62 60 60 62 65 68 73 78 76 81 82 81 81 81 82 82 92 84 81 76 68 54 41 34 38 52
23 30 31 39 48 55 58 62 61 60 60 61 61 63 63 64 65 64 67 70 72 71 69 67 68 65 70 76 81 86 89 90 89 88 86 74 67 58 46 52 64 73 51
30 35 40 45 49 55 60 61 61 61 64 67 68 70 69 69 68 67 70 72 79 80 79 79 76 70 65 62 57 68 73 81 86 92 89 84 75 70 78 81 79 53 55
32 40 45 50 59 61 62 59 62 62 60 58 58 57 56 55 55 59 60 66 72 77 80 81 80 80 79 74 71 69 62 63 67 77 82 72 68 69 72 68 61 61 50
33 43 52 55 59 66 63 60 58 57 58 62 65 69 74 73 74 79 79 81 84 88 94 98 97 95 95 97 99 96 90 81 75 63 60 74 74 73 74 66 50 39 46
45 48 53 58 57 52 56 61 67 72 76 79 83 85 88 88 88 87 88 92 95 97 100 102 107 110 110 111 113 113 112 104 92 79 75 63 69 71 74 67 76 68 65
37 42 47 48 50 57 64 72 80 87 92 97 101 105 107 107 105 103 100 100 103 105 103 99 93 89 83 80 79 83 86 89 99 104 94 82 60 67 71 79 84 83 80
40 42 46 50 59 68 77 86 93 100 109 103 89 86 87 82 76 75 73 74 72 72 70 67 67 68 68 64 62 66 73 80 79 82 88 104 106 75 43 60 74 67 68
38 44 50 60 70 78 85 95 102 92 90 87 78 69 66 69 63 57 55 57 60 60 60 65 67 71 69 59 61 63 64 64 63 61 61 80 82 118 107 62 59 64 60
43 52 61 69 78 88 97 90 85 78 66 66 64 60 63 64 60 57 49 45 51 55 59 60 59 59 54 51 50 55 62 56 53 58 64 70 70 85 103 94 53 46 48
59 67 75 83 89 85 79 73 62 60 59 60 61 64 64 64 60 56 51 47 48 51 55 57 59 60 55 53 55 60 58 55 62 62 55 52 51 49 65 92 83 68 55
79 83 83 76 71 66 59 58 55 52 55 59 64 68 64 58 58 53 50 55 55 49 50 56 60 56 58 58 60 55 53 57 59 59 57 52 52 40 45 43 50 49 49
73 69 67 66 60 53 47 45 47 49 53 56 57 60 64 65 61 54 54 58 57 53 49 50 52 54 56 60 55 51 48 47 48 56 47 51 42 40 43 48 57 58 51
65 63 59 55 50 46 42 44 47 44 42 48 54 57 62 63 56 50 57 60 60 58 55 60 64 64 60 50 43 40 34 33 34 28 30 32 25 30 38 31 41 54 58
56 53 50 48 46 45 46 47 38 40 41 40 48 52 54 54 54 59 65 58 53 49 49 54 57 56 52 39 34 35 26 32 26 28 29 27 30 35 41 44 40 49 57
47 46 46 43 42 43 44 47 57 50 49 48 55 50 43 43 50 65 53 47 44 40 42 45 47 44 32 32 33 32 33 33 35 39 40 38 36 37 35 41 46 47 53
41 38 37 39 43 44 43 44 47 56 64 65 53 46 38 42 55 46 42 42 34 27 26 29 30 20 21 27 35 37 32 31 37 38 34 26 24 27 32 30 39 50 47
37 36 37 40 41 40 40 41 46 53 55 56 57 48 39 43 43 38 40 43 34 22 13 12 11 13 20 25 33 35 29 24 20 17 22 25 24 24 32 39 41 41 45
36 34 36 39 41 41 40 42 44 48 49 49 51 49 44 46 40 43 42 40 20 17 19 18 23 34 38 30 18 23 31 24 20 28 22 24 30 32 33 40 33 42 61
41 43 43 42 41 41 40 41 43 44 47 48 46 39 37 37 36 42 39 30 14 17 27 37 42 38 32 26 28 21 18 14 16 20 24 21 20 30 31 34 40 54 56
46 48 50 48 44 44 43 41 42 44 43 44 42 34 35 31 30 38 29 25 21 19 27 33 38 39 29 23 6 9 9 12 16 19 19 18 22 31 40 43 40 56 56
56 56 56 55 54 53 52 50 48 45 43 41 39 35 31 31 31 31 24 16 22 20 24 28 35 34 30 24 21 16 1 8 11 21 28 28 35 42 41 33 33 28 29
59 61 62 62 64 64 64 62 59 53 47 43 39 35 30 28 27 28 22 10 17 24 20 29 37 23 28 29 31 26 32 19 21 37 39 44 45 41 46 36 32 36 27
54 57 63 67 69 70 71 71 69 65 57 49 44 38 32 24 23 19 14 11 16 15 13 28 42 38 40 38 29 29 33 19 30 32 37 41 43 45 46 40 28 32 44
57 55 57 61 66 69 72 73 73 72 70 59 49 42 36 30 22 19 12 9 16 9 7 22 33 35 38 37 31 22 19 19 34 31 32 44 50 26 22 19 29 50 61
Wind_Direction_500mb
334 350 345 338 329 321 315 312 308 304 297 294 292 295 292 288 280 273 268 267 269 272 270 269 269 270 270 270 270 271 270 267 270 275 275 281 276 269 279 287 288 281 289
334 332 330 328 322 317 313 312 312 309 304 299 295 289 286 285 285 282 279 273 271 275 277 278 275 271 270 269 269 268 267 266 266 272 277 277 280 283 279 270 272 290 288
309 308 307 310 314 312 311 310 312 313 311 307 304 301 299 294 290 285 281 277 275 274 275 275 273 276 276 274 271 271 269 266 267 271 276 277 278 278 255 269 280 294 287
288 295 300 302 303 307 308 308 306 306 305 304 302 300 297 294 292 287 284 280 275 274 274 274 274 271 268 267 268 267 268 269 271 270 269 268 267 263 270 279 286 282 285
294 299 301 300 302 305 308 310 309 307 302 297 294 290 288 286 287 285 282 278 276 275 274 274 273 270 268 268 271 271 268 268 267 268 268 267 265 266 269 275 272 275 259
289 295 298 299 299 301 307 307 299 291 286 285 284 283 283 282 281 280 279 277 276 275 276 275 276 275 273 271 268 269 272 274 271 269 269 264 261 261 266 266 256 266 280
298 295 296 299 301 302 292 287 287 291 292 292 291 290 289 287 285 282 279 278 278 278 279 279 278 277 277 278 275 273 270 268 267 268 266 265 260 261 263 258 259 267 277
297 295 298 294 287 284 285 289 292 294 297 297 295 293 292 291 290 289 287 285 281 278 277 279 278 278 276 278 279 277 275 270 265 263 261 260 261 252 250 257 261 266 272
296 290 286 285 286 290 292 294 297 298 299 298 297 296 297 296 297 296 296 294 291 286 284 280 281 283 282 283 283 281 279 275 271 266 259 255 253 254 252 259 255 255 263
286 287 289 293 296 298 299 300 301 301 300 301 300 301 301 301 301 300 297 296 293 289 284 282 282 284 285 284 282 283 282 279 282 278 270 263 255 248 248 262 254 253 257
293 295 296 298 300 301 302 302 302 304 303 301 302 305 310 309 309 306 304 299 295 295 290 287 286 291 295 291 289 286 281 280 281 275 272 270 262 246 240 244 243 235 244
301 300 301 302 304 305 305 306 306 307 309 310 312 312 312 312 310 307 307 309 305 289 283 285 287 289 286 286 285 284 279 271 274 272 271 273 251 252 238 238 247 248 248
302 303 306 307 309 310 309 311 314 316 317 317 316 313 314 315 313 314 316 312 305 297 289 285 285 282 283 284 287 288 278 271 267 264 273 259 243 251 230 223 224 228 239
307 312 314 315 316 317 316 318 321 321 319 318 315 315 315 314 310 310 313 311 306 298 294 286 282 278 278 287 291 289 277 266 254 268 263 261 245 232 235 236 223 227 232
314 317 320 321 324 326 328 328 327 330 327 322 321 319 317 314 313 313 314 307 301 296 290 278 276 277 285 284 289 296 274 258 275 251 242 244 230 214 223 221 222 228 237
320 324 327 329 333 333 332 332 334 333 331 331 336 332 329 322 323 319 314 305 295 286 282 278 280 281 283 280 291 300 275 263 268 249 243 242 244 242 236 235 227 226 226
327 330 332 332 332 334 335 334 330 333 340 341 343 337 331 328 331 325 320 309 301 293 279 276 280 287 277 280 305 304 294 264 268 266 265 257 250 241 235 233 226 222 221
336 337 335 337 337 336 335 333 334 335 332 332 338 341 340 338 341 335 338 337 326 316 302 291 290 289 296 300 296 301 305 297 279 275 259 257 244 227 213 205 191 203 208
348 349 347 344 342 338 334 333 335 327 329 332 339 347 347 346 349 345 347 348 342 340 7 22 4 315 308 309 315 311 305 315 298 254 243 229 218 215 207 196 193 191 188
4 1 355 351 349 345 343 339 338 339 340 342 345 350 350 348 355 356 357 1 17 32 10 352 329 318 326 339 328 293 305 313 261 243 243 223 219 221 209 197 206 194 191
16 16 11 5 359 355 351 350 348 346 347 346 350 357 1 354 359 359 360 2 23 10 358 352 346 351 350 330 322 310 303 280 238 231 228 221 208 193 194 189 176 184 179
27 25 22 16 13 10 8 1 357 352 351 349 353 2 8 7 4 6 0 12 13 4 356 349 358 356 4 6 346 324 288 245 227 209 189 196 175 179 185 185 165 170 178
35 33 32 29 27 23 20 14 8 2 359 358 357 359 5 9 7 9 4 7 2 348 344 9 4 4 25 28 40 49 281 179 184 186 188 186 172 164 171 191 198 210 209
35 35 33 32 31 29 26 21 16 11 6 4 1 358 358 3 2 5 6 14 352 343 1 19 16 59 42 33 52 59 61 96 120 139 151 161 165 171 177 187 186 185 206
30 33 34 32 30 28 27 25 21 17 13 8 4 1 359 356 2 360 360 1 355 358 27 34 31 29 31 27 44 69 57 72 118 138 154 150 158 173 181 190 227 221 207
29 31 33 33 32 30 28 27 25 23 18 12 7 4 2 360 356 354 348 332 4 10 35 25 34 27 21 25 34 62 74 63 126 132 157 157 161 187 222 224 189 188 190
Wind_Speed_850mb
21 20 24 33 38 41 40 40 40 42 45 48 50 51 50 47 44 48 53 60 66 70 70 72 75 73 71 71 70 70 72 72 82 80 73 64 58 51 60 65 47 43 48
13 18 23 30 38 42 46 52 54 55 56 57 57 60 63 63 63 62 60 60 62 65 68 73 78 76 81 82 81 81 81 82 82 92 84 81 76 68 54 41 34 38 52
23 30 31 39 48 55 58 62 61 60 60 61 61 63 63 64 65 64 67 70 72 71 69 67 68 65 70 76 81 86 89 90 89 88 86 74 67 58 46 52 64 73 51
30 35 40 45 49 55 60 61 61 61 64 67 68 70 69 69 68 67 70 72 79 80 79 79 76 70 65 62 57 68 73 81 86 92 89 84 75 70 78 81 79 53 55
32 40 45 50 59 61 62 59 62 62 60 58 58 57 56 55 55 59 60 66 72 77 80 81 80 80 79 74 71 69 62 63 67 77 82 72 68 69 72 68 61 61 50
33 43 52 55 59 66 63 60 58 57 58 62 65 69 74 73 74 79 79 81 84 88 94 98 97 95 95 97 99 96 90 81 75 63 60 74 74 73 74 66 50 39 46
45 48 53 58 57 52 56 61 67 72 76 79 83 85 88 88 88 87 88 92 95 97 100 102 107 110 110 111 113 113 112 104 92 79 75 63 69 71 74 67 76 68 65
37 42 47 48 50 57 64 72 80 87 92 97 101 105 107 107 105 103 100 100 103 105 103 99 93 89 83 80 79 83 86 89 99 104 94 82 60 67 71 79 84 83 80
40 42 46 50 59 68 77 86 93 100 109 103 89 86 87 82 76 75 73 74 72 72 70 67 67 68 68 64 62 66 73 80 79 82 88 104 106 75 43 60 74 67 68
38 44 50 60 70 78 85 95 102 92 90 87 78 69 66 69 63 57 55 57 60 60 60 65 67 71 69 59 61 63 64 64 63 61 61 80 82 118 107 62 59 64 60
43 52 61 69 78 88 97 90 85 78 66 66 64 60 63 64 60 57 49 45 51 55 59 60 59 59 54 51 50 55 62 56 53 58 64 70 70 85 103 94 53 46 48
59 67 75 83 89 85 79 73 62 60 59 60 61 64 64 64 60 56 51 47 48 51 55 57 59 60 55 53 55 60 58 55 62 62 55 52 51 49 65 92 83 68 55
79 83 83 76 71 66 59 58 55 52 55 59 64 68 64 58 58 53 50 55 55 49 50 56 60 56 58 58 60 55 53 57 59 59 57 52 52 40 45 43 50 49 49
73 69 67 66 60 53 47 45 47 49 53 56 57 60 64 65 61 54 54 58 57 53 49 50 52 54 56 60 55 51 48 47 48 56 47 51 42 40 43 48 57 58 51
65 63 59 55 50 46 42 44 47 44 42 48 54 57 62 63 56 50 57 60 60 58 55 60 64 64 60 50 43 40 34 33 34 28 30 32 25 30 38 31 41 54 58
56 53 50 48 46 45 46 47 38 40 41 40 48 52 54 54 54 59 65 58 53 49 49 54 57 56 52 39 34 35 26 32 26 28 29 27 30 35 41 44 40 49 57
47 46 46 43 42 43 44 47 57 50 49 48 55 50 43 43 50 65 53 47 44 40 42 45 47 44 32 32 33 32 33 33 35 39 40 38 36 37 35 41 46 47 53
41 38 37 39 43 44 43 44 47 56 64 65 53 46 38 42 55 46 42 42 34 27 26 29 30 20 21 27 35 37 32 31 37 38 34 26 24 27 32 30 39 50 47
37 36 37 40 41 40 40 41 46 53 55 56 57 48 39 43 43 38 40 43 34 22 13 12 11 13 20 25 33 35 29 24 20 17 22 25 24 24 32 39 41 41 45
36 34 36 39 41 41 40 42 44 48 49 49 51 49 44 46 40 43 42 40 20 17 19 18 23 34 38 30 18 23 31 24 20 28 22 24 30 32 33 40 33 42 61
41 43 43 42 41 41 40 41 43 44 47 48 46 39 37 37 36 42 39 30 14 17 27 37 42 38 32 26 28 21 18 14 16 20 24 21 20 30 31 34 40 54 56
46 48 50 48 44 44 43 41 42 44 43 44 42 34 35 31 30 38 29 25 21 19 27 33 38 39 29 23 6 9 9 12 16 19 19 18 22 31 40 43 40 56 56
56 56 56 55 54 53 52 50 48 45 43 41 39 35 31 31 31 31 24 16 22 20 24 28 35 34 30 24 21 16 1 8 11 21 28 28 35 42 41 33 33 28 29
59 61 62 62 64 64 64 62 59 53 47 43 39 35 30 28 27 28 22 10 17 24 20 29 37 23 28 29 31 26 32 19 21 37 39 44 45 41 46 36 32 36 27
54 57 63 67 69 70 71 71 69 65 57 49 44 38 32 24 23 19 14 11 16 15 13 28 42 38 40 38 29 29 33 19 30 32 37 41 43 45 46 40 28 32 44
57 55 57 61 66 69 72 73 73 72 70 59 49 42 36 30 22 19 12 9 16 9 7 22 33 35 38 37 31 22 19 19 34 31 32 44 50 26 22 19 29 50 61
Wind_Direction_850mb
334 350 345 338 329 321 315 312 308 304 297 294 292 295 292 288 280 273 268 267 269 272 270 269 269 270 270 270 270 271 270 267 270 275 275 281 276 269 279 287 288 281 289
334 332 330 328 322 317 313 312 312 309 304 299 295 289 286 285 285 282 279 273 271 275 277 278 275 271 270 269 269 268 267 266 266 272 277 277 280 283 279 270 272 290 288
309 308 307 310 314 312 311 310 312 313 311 307 304 301 299 294 290 285 281 277 275 274 275 275 273 276 276 274 271 271 269 266 267 271 276 277 278 278 255 269 280 294 287
288 295 300 302 303 307 308 308 306 306 305 304 302 300 297 294 292 287 284 280 275 274 274 274 274 271 268 267 268 267 268 269 271 270 269 268 267 263 270 279 286 282 285
294 299 301 300 302 305 308 310 309 307 302 297 294 290 288 286 287 285 282 278 276 275 274 274 273 270 268 268 271 271 268 268 267 268 268 267 265 266 269 275 272 275 259
289 295 298 299 299 301 307 307 299 291 286 285 284 283 283 282 281 280 279 277 276 275 276 275 276 275 273 271 268 269 272 274 271 269 269 264 261 261 266 266 256 266 280
298 295 296 299 301 302 292 287 287 291 292 292 291 290 289 287 285 282 279 278 278 278 279 279 278 277 277 278 275 273 270 268 267 268 266 265 260 261 263 258 259 267 277
297 295 298 294 287 284 285 289 292 294 297 297 295 293 292 291 290 289 287 285 281 278 277 279 278 278 276 278 279 277 275 270 265 263 261 260 261 252 250 257 261 266 272
296 290 286 285 286 290 292 294 297 298 299 298 297 296 297 296 297 296 296 294 291 286 284 280 281 283 282 283 283 281 279 275 271 266 259 255 253 254 252 259 255 255 263
286 287 289 293 296 298 299 300 301 301 300 301 300 301 301 301 301 300 297 296 293 289 284 282 282 284 285 284 282 283 282 279 282 278 270 263 255 248 248 262 254 253 257
293 295 296 298 300 301 302 302 302 304 303 301 302 305 310 309 309 306 304 299 295 295 290 287 286 291 295 291 289 286 281 280 281 275 272 270 262 246 240 244 243 235 244
301 300 301 302 304 305 305 306 306 307 309 310 312 312 312 312 310 307 307 309 305 289 283 285 287 289 286 286 285 284 279 271 274 272 271 273 251 252 238 238 247 248 248
302 303 306 307 309 310 309 311 314 316 317 317 316 313 314 315 313 314 316 312 305 297 289 285 285 282 283 284 287 288 278 271 267 264 273 259 243 251 230 223 224 228 239
307 312 314 315 316 317 316 318 321 321 319 318 315 315 315 314 310 310 313 311 306 298 294 286 282 278 278 287 291 289 277 266 254 268 263 261 245 232 235 236 223 227 232
314 317 320 321 324 326 328 328 327 330 327 322 321 319 317 314 313 313 314 307 301 296 290 278 276 277 285 284 289 296 274 258 275 251 242 244 230 214 223 221 222 228 237
320 324 327 329 333 333 332 332 334 333 331 331 336 332 329 322 323 319 314 305 295 286 282 278 280 281 283 280 291 300 275 263 268 249 243 242 244 242 236 235 227 226 226
327 330 332 332 332 334 335 334 330 333 340 341 343 337 331 328 331 325 320 309 301 293 279 276 280 287 277 280 305 304 294 264 268 266 265 257 250 241 235 233 226 222 221
336 337 335 337 337 336 335 333 334 335 332 332 338 341 340 338 341 335 338 337 326 316 302 291 290 289 296 300 296 301 305 297 279 275 259 257 244 227 213 205 191 203 208
348 349 347 344 342 338 334 333 335 327 329 332 339 347 347 346 349 345 347 348 342 340 7 22 4 315 308 309 315 311 305 315 298 254 243 229 218 215 207 196 193 191 188
4 1 355 351 349 345 343 339 338 339 340 342 345 350 350 348 355 356 357 1 17 32 10 352 329 318 326 339 328 293 305 313 261 243 243 223 219 221 209 197 206 194 191
16 16 11 5 359 355 351 350 348 346 347 346 350 357 1 354 359 359 360 2 23 10 358 352 346 351 350 330 322 310 303 280 238 231 228 221 208 193 194 189 176 184 179
27 25 22 16 13 10 8 1 357 352 351 349 353 2 8 7 4 6 0 12 13 4 356 349 358 356 4 6 346 324 288 245 227 209 189 196 175 179 185 185 165 170 178
35 33 32 29 27 23 20 14 8 2 359 358 357 359 5 9 7 9 4 7 2 348 344 9 4 4 25 28 40 49 281 179 184 186 188 186 172 164 171 191 198 210 209
35 35 33 32 31 29 26 21 16 11 6 4 1 358 358 3 2 5 6 14 352 343 1 19 16 59 42 33 52 59 61 96 120 139 151 161 165 171 177 187 186 185 206
30 33 34 32 30 28 27 25 21 17 13 8 4 1 359 356 2 360 360 1 355 358 27 34 31 29 31 27 44 69 57 72 118 138 154 150 158 173 181 190 227 221 207
29 31 33 33 32 30 28 27 25 23 18 12 7 4 2 360 356 354 348 332 4 10 35 25 34 27 21 25 34 62 74 63 126 132 157 157 161 187 222 224 189 188 190